Regional Weather Roundup
Issued by NWS Sterling, VA

Home | Current Version | Previous Version | Graphics & Text | Print | Product List | Glossary On
Versions: 1 2 3 4 5 6 7 8 9 10 11 12 13 14 15 16 17 18 19 20 21 22 23 24 25 26 27 28 29 30 31 32 33 34 35 36 37 38 39 40 41 42 43 44 45 46 47 48 49 50
000
ASUS41 KLWX 200911
RWRLWX

REGIONAL WEATHER ROUNDUP
NATIONAL WEATHER SERVICE BALTIMORE MD/WASHINGTON DC
400 AM EST SAT JAN 20 2018

Note: "FAIR" indicates few or no clouds below 12,000 feet
with no significant weather and/or obstructions to visibility.
 TC=TEMPERATURE CELSIUS

 * =Non NWS site. Station does not report precipitation (e.g. rain,
    snow, etc.), thunder, or fog.

DCZ001-MDZ009-015-VAZ040>042-051-053>054-201000-
WASHINGTON METRO

CITY           SKY/WX    TMP DP  RH WIND       PRES   REMARKS
WASHINGTON NAT FAIR      30  21  69 SW5       30.00F WCI  25
DULLES         FAIR      22  16  78 CALM      29.98F
ANDREWS AFB    FAIR      31  11  44 S3        29.97F
FT BELVOIR     FAIR      22  16  75 CALM        N/A
COLLEGE PARK*  FAIR      23  17  80 CALM      29.99S
LEESBURG*      FAIR      28  21  74 W3        29.98F
MANASSAS*      FAIR      19  15  84 CALM      30.00F
GAITHERSBURG*  FAIR      25  18  74 CALM      29.97F

$$

MDZ006>007-011-014-201000-
BALTIMORE METRO

CITY           SKY/WX    TMP DP  RH WIND       PRES   REMARKS
BWI AIRPORT    FAIR      28  18  66 SW3       29.97F
MD SCIENCE CTR   N/A     34  20  56 MISG      29.98F
MARTIN STATE   FAIR      28  27  93 CALM      30.00S
ANNAPOLIS      FAIR      30  24  78 CALM      29.98F
FORT MEADE*    FAIR      23  19  86 CALM      30.00F

$$

MDZ012-015-019>023-201000-
MARYLAND EASTERN SHORE

CITY           SKY/WX    TMP DP  RH WIND       PRES   REMARKS
OCEAN CITY     FAIR      35  20  54 SW8       30.01F WCI  29
SALISBURY      FAIR      30  17  58 SW5       30.01S WCI  25
BAY BRIDGE AP* FAIR      28  19  69 S3        29.99F
CAMBRIDGE*       N/A     27  23  86 SE6       30.01S WCI  20
EASTON*        FAIR      32  17  53 CALM      30.03S

$$

MDZ017>025-201000-
SOUTHERN MARYLAND

CITY           SKY/WX    TMP DP  RH WIND       PRES   REMARKS
PATUXENT RIVER NOT AVBL
ST INIGOES     FAIR      27  18  69 CALM      30.01S
LEONARDTOWN*   FAIR      34  14  44 SW6       30.02S WCI  29

$$

MDZ003>005-201000-
NORTH CENTRAL MARYLAND

CITY           SKY/WX    TMP DP  RH WIND       PRES   REMARKS
FREDERICK*     FAIR      32  19  59 S3        30.01S
HAGERSTOWN APT FAIR      35  22  58 S6        29.97S WCI  30
WESTMINSTER*   FAIR      39  19  45 SW7       29.96S WCI  34

$$

MDZ501>502-201000-
WESTERN MARYLAND

CITY           SKY/WX    TMP DP  RH WIND       PRES   REMARKS
OAKLAND*       FAIR      32  21  64 W21G31    29.96S WCI  20
CUMBERLAND*    FAIR      43  19  39 SW7       30.02S

$$

VAZ025>031-201000-
SHENANDOAH VALLEY

CITY           SKY/WX    TMP DP  RH WIND       PRES   REMARKS
WINCHESTER*    FAIR      34  10  37 SW6       30.00S WCI  29
FRONT ROYAL*   FAIR      37   9  30 E5        29.97S WCI  34
LURAY*         FAIR      36   9  32 SW8       29.99F WCI  29
NEW MARKET*    FAIR      24  14  63 CALM      29.99F
STAUNTON*      FAIR      38   5  24 S8        30.02F WCI  32
WAYNESBORO*    FAIR      41   2  20 SW9       30.02F WCI  35

$$

WVZ021-048>050-054>055-201000-
EASTERN WEST VIRGINIA PANHANDLE

CITY           SKY/WX    TMP DP  RH WIND       PRES   REMARKS
MARTINSBURG    FAIR      25  17  72 CALM      29.98S
PETERSBURG*    FAIR      38  21  50 CALM      30.00S

$$

VAZ036>039-050-201000-
CENTRAL FOOTHILLS

CITY           SKY/WX    TMP DP  RH WIND       PRES   REMARKS
CHARLOTTESVILL FAIR      40   7  25 VRB5      29.99F
CULPEPER*      FAIR      21  14  73 CALM      30.00F
ORANGE*        FAIR      30  14  51 CALM      30.00F
GORDONSVILLE*  FAIR      29  15  55 W3        30.00F
WARRENTON*     FAIR      20  15  81 CALM      29.98F

$$

VAZ055>057-201000-
NORTH AND CENTRAL PIEDMONT

CITY           SKY/WX    TMP DP  RH WIND       PRES   REMARKS
FREDERICKSBRG* FAIR      25  19  78 CALM      30.00F
STAFFORD*      FAIR      25  16  69 CALM      30.03F

$$

NCZ024-NYZ072-PAZ021-071-VAZ022-071-201000-
OTHER REGIONAL OBSERVATIONS

CITY           SKY/WX    TMP DP  RH WIND       PRES   REMARKS
NEW YORK CITY  FAIR      39  19  44 W10G23    29.90F WCI  32
PHILADELPHIA   FAIR      32  19  58 SW8       29.97F WCI  25
PITTSBURGH     FAIR      37  21  52 SW12      29.96R WCI  29
ROANOKE        FAIR      38   5  25 W8G18     30.12S WCI  32
RICHMOND       FAIR      37  12  35 W8        30.04S WCI  31
RALEIGH        FAIR      32  23  69 W3        30.14S

$$

ANZ530>537-201000-
MARINE OBSERVATIONS

STATION/POSITION TIME  TEMP    WIND        PRES
                       AIR SEA DIR/SP/G
                 (UTC) (F)     (DEG/KT/KT) (MB)
THOMAS PT LIGHT  0900   37 32  190/  8/  8   N/A
BALT KEY BRIDGE  0848   34     240/  1/  4 1015.3F
COVE POINT       0848   38     200/  6/  7 1016.5F
LEWISETTA        0848   36 32  240/  5/  5 1016.4F
SOLOMONS ISLAND  0848   35 34  240/  4/  5 1015.8F
PINEY POINT      0848          290/  5/  5   N/A

$$




USA.gov is the U.S. government's official web portal to all federal, state and local government web resources and services.